Погода в Сан-Хосе-де-Окоа

Доминиканская Республика     18°32′44″N   70°30′03″W
темп.,
°C
ветер,
м/с
пор.,
м/с
влажн.,
%
обл.,
%
осадки,
мм/ч
давл.,
гПа
погр.,
м
11 апреля, вс
вс1123:00+19ссв128448 0.0 1016131
02:00+18св228525 0.0 1015111
05:00+16ссв228797 0.0 101465
08:00+19св22748 0.0 1016261
11:00+25ю225434 0.0 10151205
14:00+25ююз325248 0.0 10131420
17:00+23ююз325942 0.0 1012936
20:00+18ю118080 0.0 101446
12 апреля, пн
пн1223:00+18св118472 0.0 101649
02:00+17ссв118768 0.0 101532
05:00+16с118997 0.0 101528
08:00+20ююз017497 0.0 1016338
11:00+25ююз325416 0.0 10161087
14:00+26ююз325291 0.0 10131376
17:00+24ю225950 0.0 1012893
20:00+19ююз118497 0.0 101462
13 апреля, вт
вт1323:00+19ссз118690 0.0 101656
02:00+18ссз12885 0.0 101440
05:00+18с11853 0.0 101429
08:00+22ю107071 0.0 1015266
11:00+27ю32525 0.0 10151233
14:00+27ююз335350 0.1 10131420
17:00+25ю2262100 0.8 1013654
20:00+20св228369 0.8 101566
14 апреля, ср
ср1423:00+19с22830 0.0 101669
02:00+19ссв228112 0.0 101529
05:00+18ссв22823 0.0 101536
08:00+22ссв11660 0.0 1016239
11:00+27ю224820 0.0 10161475
14:00+27ююз225053 0.1 10141461
17:00+25вюв126177 0.2 1013880
20:00+21ссв2383100 0.3 1015115
15 апреля, чт
чт1523:00+20ссв238882 0.1 1016149
02:00+19св238917 0.1 101478
05:00+18ссв22885 0.0 101448
08:00+22всв11710 0.0 1016293
11:00+27ююз32481 0.0 10151371
14:00+28ююз43462 0.0 10131575
17:00+26ю336211 0.0 10121018
20:00+21ю119224 0.1 1014146